Regional Weather Roundup
Issued by NWS

Home | Current Version | Previous Version | Text Only | Print | Product List | Glossary Off
Versions: 1 2 3 4 5 6 7 8 9 10 11 12 13 14 15 16 17 18 19 20 21 22 23 24 25 26 27 28 29 30 31 32 33 34 35 36 37 38 39 40 41 42 43 44 45 46 47 48 49 50

000
ASUS45 KTFX 310219
RWRMT
MONTANA HOURLY WEATHER ROUNDUP
NATIONAL WEATHER SERVICE GREAT FALLS MT
819 PM MDT THU OCT 30 2014

NOTE: "FAIR" INDICATES FEW OR NO CLOUDS BELOW 12000 FEET WITH NO
SIGNIFICANT WEATHER AND/OR OBSTRUCTIONS TO VISIBILITY.

* THESE STATIONS ARE NOT UNDER NWS QUALITY CONTROL. THEY DO NOT
   REPORT WEATHER SUCH AS PRECIPITATION OR FOG.

MTZ001>007-043-310300-
WEST OF THE DIVIDE
CITY           SKY/WX    TMP DP  RH WIND       PRES   REMARKS
KALISPELL      PTCLDY    43  39  86 W5        30.04F
MISSOULA       CLOUDY    46  43  89 NW6       30.05F
BUTTE          CLOUDY    46  28  50 S6        30.15F
MULLAN PASS    FOG       37  37 100 S12G21    30.03F WCI  29
* DEER LODGE   MOCLDY    52  30  43 S6         N/A
* ESSEX        N/A       42  41  96 S1G6       N/A
* HAMILTON APT CLOUDY    46  39  77 SE2        N/A
* LIBBY APT    CLOUDY    45  43  93 N/A        N/A
* LINCOLN      N/A       44  39  83 S1         N/A
* LOOKOUT PASS N/A       41  40  96 S10G16     N/A
* POLSON       N/A       40  40 100 N/A        N/A
* RONAN APT    MOCLDY    43  39  86 N/A        N/A
* SEELEY LAKE  N/A       39  37  93 N3         N/A
* THOMP F APT  CLOUDY    48  27  44 NE5        N/A
* YAAK HILL    N/A       46  42  86 SE5G10     N/A
$$

MTZ008-052>055-310300-
SOUTHWEST MONTANA
CITY           SKY/WX    TMP DP  RH WIND       PRES   REMARKS
BOZEMAN        PTCLDY    45  32  60 N3        30.15F
DILLON         MOCLDY    45  30  56 E6        30.16S
W YELLOWSTONE  MOCLDY    34  27  76 CALM      30.27F
* ENNIS APT    MOCLDY    54  28  37 S9         N/A
* THREE FORKS  MOCLDY    39  39 100 N/A        N/A
* BOULDER HILL N/A       44  25  47 SW14       N/A
* MONIDA PASS  N/A       43  27  53 E4         N/A
* RAYNOLDS PAS N/A       43  25  49 SE4        N/A
* WHITEHALL    N/A       44  30  58 NW6        N/A
* WISE RIVER   N/A       44  31  60 W4         N/A
$$

MTZ009>010-012-014-046-048-049-054-310300-
EAST SLOPES AND CENTRAL MONTANA
CITY           SKY/WX    TMP DP  RH WIND       PRES   REMARKS
CUT BANK       MOCLDY    43  34  71 E12       30.09F
GREAT FALLS    MOCLDY    46  34  63 E8        30.09F
HELENA         MOCLDY    46  36  68 CALM      30.12S
MALMSTROM AFB  MOCLDY    46  34  63 SE9       30.11F
* DEARBORN     N/A       46  37  71 S2         N/A
* EAST GLACIER N/A       44  35  71 SW2G8      N/A
* MONARCH      N/A       49  23  36 SE13G19    N/A
* SAINT MARY   N/A       43  31  63 SE2        N/A
* SWEET GRASS  N/A       42  35  76 S22G29     N/A
* WHITE SULPH  N/A       47  28  48 NE8G15     N/A
$$

MTZ011-013-016-021-035-040-045-047-050-051-310300-
NORTH CENTRAL MONTANA
CITY           SKY/WX    TMP DP  RH WIND       PRES   REMARKS
HAVRE          PTCLDY    37  34  89 E21       30.18F WCI  26
LEWISTOWN      CLOUDY    46  34  63 E14       30.19F
* N BAR RANCH  CLEAR     43  32  65 SE10      30.27S
* FORT BENTON  CLOUDY    48  36  63 E17G26    30.11F
* CHESTER      N/A       35  32  89 NE6G11     N/A   WCI  30
* DENTON       N/A       49  31  50 SE9        N/A
* GEYSER       N/A       42  33  71 S4         N/A
* JUDITH GAP   N/A       40  27  60 SE9        N/A   WCI  34
* LOMA         N/A       45  36  71 E19G25     N/A
$$

MTZ017>020-022>027-061-062-310300-
NORTHEAST MONTANA
CITY           SKY/WX    TMP DP  RH WIND       PRES   REMARKS
GLASGOW        CLOUDY    36  28  73 SE20      30.39S WCI  25
GLENDIVE       CLOUDY    36  30  79 E14       30.44F WCI  27
JORDAN         CLEAR     32  30  92 E8        30.34S WCI  25
SIDNEY         CLOUDY    37  30  76 SE10      30.50R WCI  30
WOLF POINT     CLOUDY    37  30  76 E12       30.44F WCI  29
* BEAVER HILL  N/A       35  30  82 E12G20     N/A   WCI  27
* CIRCLE       N/A       35  32  89 E15        N/A   WCI  25
* LINDSAY DVD  N/A       33  30  89 E17G24     N/A   WCI  22
* NAVAJO       N/A       32  29  89 SE10G15    N/A   WCI  24
* PLENTYWOOD A N/A       34  28  79 SE11       N/A   WCI  26
* POPLAR APT   N/A       37  32  82 N/A        N/A
* SACO         N/A       34  30  85 E17G24     N/A   WCI  23
* SCOBEY APT   PTCLDY    34  25  70 SE11G17    N/A   WCI  26
$$

MTZ028>042-056>058-310300-
SOUTHCENTRAL AND SOUTHEAST MONTANA
CITY           SKY/WX    TMP DP  RH WIND       PRES   REMARKS
BAKER          CLOUDY    36  28  73 E16       30.44R WCI  26
BILLINGS       MOCLDY    48  30  50 NE6       30.24F
LIVINGSTON     PTCLDY    46  28  50 SE9       30.20S
MILES CITY     CLEAR     34  28  79 NE9       30.37S WCI  27
* FORSYTH APT  PTCLDY    37  32  82 E7         N/A   WCI  32
* LAUREL APT   PTCLDY    48  27  44 N/A        N/A
* ROUNDUP APT  MOCLDY    46  30  54 NE5        N/A
* ALZADA       N/A       34  30  85 E11        N/A   WCI  26
* HYSHAM       N/A       44  33  65 NE9        N/A
* LAME DEER    N/A       42  33  71 SE8        N/A
* REED POINT   N/A       47  26  44 N/A        N/A
* ROSCOE HILL  N/A       43  23  45 SW4        N/A
$$

REGIONAL REPORTS...DAKOTAS
CITY           SKY/WX    TMP DP  RH WIND       PRES   REMARKS
WILLISTON      CLOUDY    36  27  70 E12       30.51R WCI  28
DICKINSON      CLOUDY    34  28  79 E9        30.47R WCI  27
BEACH          N/A       34  32  92 SE14      30.46R WCI  24
CROSBY         CLOUDY    28  25  89 SE10      30.52F WCI  19
TIOGA          CLOUDY    27  27 100 E12       30.54S WCI  16
BISMARCK       PTCLDY    30  21  69 NE7       30.56R WCI  23
GRAND FORKS    CLEAR     25  19  78 N8        30.53R WCI  16
FARGO          CLEAR     28  21  75 N10       30.49R WCI  19
BUFFALO SD     CLEAR     36  28  73 E9        30.39R WCI  29
RAPID CITY     CLEAR     28  27  96 E5        30.45R WCI  22
$$

REGIONAL REPORTS...WYOMING/IDAHO/WASHINGTON
CITY           SKY/WX    TMP DP  RH WIND       PRES   REMARKS
GILLETTE       PTCLDY    36  27  70 CALM      30.34S
SHERIDAN       PTCLDY    45  27  49 S5        30.29F
CODY           PTCLDY    46  27  48 CALM      30.26S
YELLOWSTONE LA CLOUDY    30  28  92 CALM      30.35S
SALMON         CLOUDY    46  36  68 CALM      30.08S
MULLAN PASS    FOG       37  37 100 S12G21    30.03S WCI  29
SAND POINT     CLOUDY    46  45  96 NE14      29.96F
SPOKANE        CLOUDY    50  45  83 NE12      29.88F
$$

REGIONAL REPORTS...ALBERTA
CITY           SKY/WX    TMP DP  RH WIND       PRES   REMARKS
CALGARY        MOCLDY    37  36  96 S16       29.96F WCI  28
LETHBRIDGE     MOCLDY    48  36  63 SE12      30.03F
MEDICINE HAT   N/A       43  36  76 SE14      30.13F
EDMONTON       CLOUDY    36  32  85 SE20G28   29.96F WCI  25
WATERTON GATE  N/A       48  32  54 SW3        N/A
CARDSTON       N/A       48  36  63 S8         N/A
MILK RIVER     N/A       45  36  71 S16G22     N/A
$$

REGIONAL REPORTS...SASKATCHEWAN
CITY           SKY/WX    TMP DP  RH WIND       PRES   REMARKS
SWIFT CURRENT  CLOUDY    32  28  85 SE29G40   30.28F WCI  18
REGINA         FAIR      25  21  85 SE13      30.49S WCI  13
VAL MARIE      N/A       34  30  85 S15G23     N/A   WCI  24
ASSINIBOIA     N/A       32  28  85 SE14G20    N/A   WCI  22
CORONACH       N/A       32  28  85 SE15G21    N/A   WCI  22

$$




USA.gov is the U.S. government's official web portal to all federal, state and local government web resources and services.